NORTHEAST SUFFOLK  -  Winter Weather Advisory Winter Weather Advisory     Winter Weather Advisory Winter Weather Advisory        NORTHERN NASSAU  -  Winter Weather Advisory Winter Weather Advisory        NORTHWEST SUFFOLK  -  Winter Weather Advisory Winter Weather Advisory     Winter Weather Advisory Winter Weather Advisory        SOUTHEAST SUFFOLK  -  Winter Weather Advisory Winter Weather Advisory     Winter Weather Advisory Winter Weather Advisory        SOUTHERN NASSAU  -  Winter Weather Advisory Winter Weather Advisory        SOUTHWEST SUFFOLK  -  Winter Weather Advisory Winter Weather Advisory     Winter Weather Advisory Winter Weather Advisory      

Active alerts

Northern Nassau
  Details for Northern Nassau Winter Weather Advisory
Southern Nassau
  Details for Southern Nassau Winter Weather Advisory
Northwest Suffolk
  Details for Northwest Suffolk Winter Weather Advisory  +1 additional alert
Southwest Suffolk
  Details for Southwest Suffolk Winter Weather Advisory  +1 additional alert
Northeast Suffolk
  Details for Northeast Suffolk Winter Weather Advisory  +1 additional alert
Southeast Suffolk
  Details for Southeast Suffolk Winter Weather Advisory  +1 additional alert


WXM80 ListenWXM80 Stop

You find our weather info also at:

UK Metoffice

WeatherCloud

Weather Underground

Northeastern Weather Network

AWEKAS

Citizen Weather Observer Program (CWOP)

HAMweather, WeatherForYou, PWS Weather


Weather Underground History page Text

Daily Summary for May 9, 2017 Units:  Metric    English   Both
« Previous Day
Next Day »
Daily Weekly Monthly Yearly Custom
  High: Low: Average:
Temperature: 14.8 °C 8.2 °C 11.3 °C
Dew Point: 7.7 °C 4.2 °C 5.8 °C
Humidity: 80 % 55 % 69 %
Wind Speed: 13.2 km/h 0 km/h 5.3 km/h
Wind Gust: 24.1 km/h - -
Wind:- - ENE
Pressure: 1014.8 hPa 1011.7 hPa -
Precipitation: 0 mm    
Historical Graphs
 
 
Tabular Data for May 9, 2017
Time Temperature Dew Point Pressure Wind Wind Speed Wind Gust Humidity Rainfall Rate (Hourly)
00:00 10.4 °C 4.8 °C 1012.8 hPa ENE 2.1 km/h 3.7 km/h 68 % 0 mm
00:05 10.4 °C 5 °C 1012.8 hPa ENE 3.2 km/h 5.6 km/h 69 % 0 mm
00:10 10.4 °C 5.2 °C 1012.8 hPa ENE 3.5 km/h 5.6 km/h 70 % 0 mm
00:15 10.4 °C 5 °C 1012.8 hPa ENE 3.7 km/h 5.6 km/h 69 % 0 mm
00:20 10.4 °C 5 °C 1012.8 hPa ENE 1.8 km/h 3.7 km/h 69 % 0 mm
00:25 10.4 °C 5.4 °C 1012.8 hPa ENE 1.6 km/h 3.7 km/h 71 % 0 mm
00:30 10.4 °C 5.6 °C 1012.8 hPa ENE 1.4 km/h 3.7 km/h 72 % 0 mm
00:35 10.3 °C 5.1 °C 1012.8 hPa ENE 1.8 km/h 3.7 km/h 70 % 0 mm
00:40 10.3 °C 4.8 °C 1012.8 hPa ENE 1.6 km/h 3.2 km/h 69 % 0 mm
00:45 10.3 °C 5.1 °C 1012.8 hPa ENE 1.6 km/h 3.2 km/h 70 % 0 mm
00:50 10.3 °C 5.2 °C 1012.8 hPa ENE 1 km/h 3.7 km/h 71 % 0 mm
00:55 10.2 °C 5 °C 1012.8 hPa ENE 2.3 km/h 5.6 km/h 70 % 0 mm
01:00 10.2 °C 4.9 °C 1012.8 hPa ENE 3.9 km/h 4.8 km/h 70 % 0 mm
01:05 10.2 °C 5.2 °C 1012.8 hPa ENE 9.7 km/h 16.1 km/h 71 % 0 mm
01:11 10.2 °C 5.2 °C 1012.8 hPa ENE 4.8 km/h 14.5 km/h 71 % 0 mm
01:15 10.2 °C 5.6 °C 1012.8 hPa ENE 9.7 km/h 16.1 km/h 73 % 0 mm
01:20 10.1 °C 5.5 °C 1012.8 hPa ENE 8 km/h 19.3 km/h 73 % 0 mm
01:25 10.1 °C 5.2 °C 1012.4 hPa ENE 4.8 km/h 12.9 km/h 72 % 0 mm
01:31 9.9 °C 4.9 °C 1012.4 hPa ENE 4.8 km/h 11.3 km/h 71 % 0 mm
01:35 9.9 °C 5.3 °C 1012.4 hPa East 4.8 km/h 11.3 km/h 73 % 0 mm
01:40 9.8 °C 5.2 °C 1012.4 hPa East 8 km/h 9.7 km/h 73 % 0 mm
01:45 9.8 °C 5.6 °C 1012.1 hPa East 8 km/h 11.3 km/h 75 % 0 mm
01:50 9.8 °C 5.6 °C 1012.1 hPa East 8 km/h 16.1 km/h 75 % 0 mm
01:56 9.7 °C 5.5 °C 1012.1 hPa East 8 km/h 9.7 km/h 75 % 0 mm
02:01 9.7 °C 5.6 °C 1012.1 hPa East 5 km/h 11.1 km/h 76 % 0 mm
02:05 9.7 °C 5.4 °C 1012.1 hPa ENE 4.8 km/h 11.3 km/h 75 % 0 mm
02:10 9.6 °C 5.3 °C 1012.1 hPa ENE 4.8 km/h 8 km/h 75 % 0 mm
02:15 9.5 °C 5.5 °C 1012.1 hPa East 9.7 km/h 9.7 km/h 76 % 0 mm
02:20 9.4 °C 5.2 °C 1012.1 hPa East 4.8 km/h 9.7 km/h 75 % 0 mm
02:26 9.3 °C 5.3 °C 1012.1 hPa East 8 km/h 9.7 km/h 76 % 0 mm
02:31 9.3 °C 5.3 °C 1012.1 hPa East 5.1 km/h 9.7 km/h 76 % 0 mm
02:36 9.2 °C 5.2 °C 1011.7 hPa East 8 km/h 14.5 km/h 76 % 0 mm
02:41 9.2 °C 5.3 °C 1011.7 hPa East 4.8 km/h 9.7 km/h 77 % 0 mm
02:46 9.1 °C 5.1 °C 1012.1 hPa East 4.8 km/h 11.3 km/h 76 % 0 mm
02:51 8.9 °C 4.7 °C 1011.7 hPa East 7.9 km/h 9.7 km/h 75 % 0 mm
02:56 8.9 °C 5.1 °C 1012.1 hPa East 4.8 km/h 11.3 km/h 77 % 0 mm
03:01 8.8 °C 4.8 °C 1012.1 hPa ENE 11.1 km/h 14.8 km/h 76 % 0 mm
03:06 8.8 °C 4.9 °C 1012.1 hPa ENE 8 km/h 19.3 km/h 77 % 0 mm
03:11 8.8 °C 5.2 °C 1012.1 hPa ENE 4.8 km/h 14.5 km/h 78 % 0 mm
03:16 8.7 °C 5.1 °C 1012.1 hPa ENE 4.8 km/h 19.3 km/h 78 % 0 mm
03:21 8.7 °C 4.9 °C 1012.4 hPa ENE 4.8 km/h 16.1 km/h 77 % 0 mm
03:26 8.7 °C 4.9 °C 1012.4 hPa ENE 12.9 km/h 22.5 km/h 77 % 0 mm
03:31 8.7 °C 4.9 °C 1012.4 hPa ENE 11.3 km/h 19.3 km/h 77 % 0 mm
03:36 8.7 °C 4.8 °C 1012.4 hPa ENE 9.7 km/h 22.5 km/h 77 % 0 mm
03:41 8.7 °C 5.1 °C 1012.4 hPa East 9.8 km/h 13 km/h 78 % 0 mm
03:46 8.7 °C 5.1 °C 1012.4 hPa ENE 4.8 km/h 19.3 km/h 78 % 0 mm
03:51 8.6 °C 5 °C 1012.4 hPa ENE 11.3 km/h 19.3 km/h 78 % 0 mm
03:56 8.6 °C 4.9 °C 1012.4 hPa ENE 9.7 km/h 14.5 km/h 78 % 0 mm
04:01 8.6 °C 4.8 °C 1012.4 hPa ENE 11.7 km/h 16.7 km/h 77 % 0 mm
04:06 8.5 °C 4.7 °C 1012.4 hPa ENE 9.7 km/h 19.3 km/h 77 % 0 mm
04:11 8.5 °C 4.9 °C 1012.4 hPa ENE 11.3 km/h 20.9 km/h 78 % 0 mm
04:16 8.4 °C 5 °C 1012.4 hPa ENE 9.7 km/h 16.1 km/h 79 % 0 mm
04:21 8.4 °C 5 °C 1012.4 hPa ENE 12.9 km/h 22.5 km/h 79 % 0 mm
04:26 8.4 °C 4.9 °C 1012.4 hPa ENE 13.2 km/h 24.1 km/h 79 % 0 mm
04:31 8.3 °C 5.1 °C 1012.4 hPa ENE 9.7 km/h 16.1 km/h 80 % 0 mm
04:36 8.3 °C 5.1 °C 1012.4 hPa ENE 9.7 km/h 20.9 km/h 80 % 0 mm
04:41 8.3 °C 4.8 °C 1012.4 hPa ENE 11.3 km/h 19.3 km/h 79 % 0 mm
04:43 8.3 °C 4.8 °C 1012.4 hPa ENE 11.4 km/h 18.5 km/h 79 % 0 mm
04:48 8.3 °C 5.1 °C 1012.4 hPa ENE 10.1 km/h 16.7 km/h 80 % 0 mm
04:53 8.3 °C 4.8 °C 1012.4 hPa NE 6.3 km/h 11.1 km/h 79 % 0 mm
04:58 8.3 °C 5.1 °C 1012.4 hPa East 8.9 km/h 18.5 km/h 80 % 0 mm
05:03 8.3 °C 5.1 °C 1012.4 hPa NE 8.9 km/h 13 km/h 80 % 0 mm
05:09 8.3 °C 4.9 °C 1012.4 hPa ENE 10.3 km/h 16.7 km/h 79 % 0 mm
05:14 8.3 °C 4.9 °C 1012.4 hPa ENE 6 km/h 13 km/h 79 % 0 mm
05:19 8.3 °C 4.9 °C 1012.4 hPa ENE 9.2 km/h 14.8 km/h 79 % 0 mm
05:24 8.3 °C 4.9 °C 1012.4 hPa ENE 7.6 km/h 14.8 km/h 79 % 0 mm
05:29 8.4 °C 4.9 °C 1012.4 hPa NE 9.5 km/h 18.5 km/h 79 % 0 mm
05:34 8.4 °C 4.8 °C 1012.4 hPa ENE 8.7 km/h 16.7 km/h 78 % 0 mm
05:39 8.3 °C 4.6 °C 1012.8 hPa ENE 9.2 km/h 18.5 km/h 77 % 0 mm
05:44 8.3 °C 4.6 °C 1012.8 hPa ENE 6.6 km/h 11.1 km/h 77 % 0 mm
05:49 8.3 °C 4.6 °C 1012.8 hPa East 7.9 km/h 14.8 km/h 77 % 0 mm
05:54 8.3 °C 4.5 °C 1012.8 hPa ENE 6 km/h 9.3 km/h 77 % 0 mm
05:59 8.2 °C 4.2 °C 1012.8 hPa ENE 7.1 km/h 12.9 km/h 76 % 0 mm
06:04 8.2 °C 4.4 °C 1012.8 hPa ENE 7.4 km/h 13 km/h 77 % 0 mm
06:09 8.2 °C 4.4 °C 1012.8 hPa ENE 11.3 km/h 11.3 km/h 77 % 0 mm
06:14 8.3 °C 4.7 °C 1012.8 hPa ENE 6.4 km/h 11.3 km/h 78 % 0 mm
06:19 8.3 °C 4.7 °C 1012.8 hPa ENE 9.3 km/h 14.8 km/h 78 % 0 mm
06:24 8.4 °C 4.7 °C 1013.1 hPa ENE 5.5 km/h 11.1 km/h 77 % 0 mm
06:29 8.7 °C 4.8 °C 1012.8 hPa East 8.5 km/h 16.1 km/h 77 % 0 mm
06:34 8.8 °C 4.7 °C 1013.1 hPa East 10.6 km/h 14.8 km/h 75 % 0 mm
06:39 9 °C 4.8 °C 1013.1 hPa ENE 7.2 km/h 11.1 km/h 75 % 0 mm
06:44 9 °C 4.8 °C 1013.1 hPa ENE 6.3 km/h 9.3 km/h 75 % 0 mm
06:49 9 °C 4.8 °C 1013.1 hPa ENE 7.4 km/h 13 km/h 75 % 0 mm
06:54 8.9 °C 4.9 °C 1013.1 hPa ENE 2.9 km/h 5.6 km/h 76 % 0 mm
06:59 8.9 °C 4.7 °C 1013.1 hPa East 4.2 km/h 11.1 km/h 75 % 0 mm
07:04 8.9 °C 4.7 °C 1013.1 hPa NE 6.8 km/h 11.3 km/h 75 % 0 mm
07:09 8.9 °C 4.7 °C 1013.1 hPa ENE 6.8 km/h 14.8 km/h 75 % 0 mm
07:14 9.1 °C 4.7 °C 1013.1 hPa NE 5.6 km/h 14.8 km/h 74 % 0 mm
07:19 9.2 °C 4.8 °C 1013.1 hPa ENE 6 km/h 9.3 km/h 74 % 0 mm
07:24 9.4 °C 5.2 °C 1013.1 hPa ENE 4.5 km/h 5.6 km/h 75 % 0 mm
07:29 9.6 °C 4.8 °C 1013.1 hPa ENE 3.2 km/h 11.1 km/h 72 % 0 mm
07:34 9.6 °C 4.8 °C 1013.4 hPa ENE 4.7 km/h 13 km/h 72 % 0 mm
07:40 9.6 °C 4.6 °C 1013.4 hPa ENE 6.3 km/h 14.8 km/h 71 % 0 mm
07:45 9.5 °C 4.5 °C 1013.4 hPa ENE 7.2 km/h 13 km/h 71 % 0 mm
07:50 9.6 °C 4.9 °C 1013.4 hPa East 6.4 km/h 13 km/h 73 % 0 mm
07:55 9.7 °C 5.3 °C 1013.4 hPa East 5.8 km/h 14.8 km/h 74 % 0 mm
08:00 9.7 °C 4.9 °C 1013.4 hPa ENE 5.5 km/h 11.3 km/h 72 % 0 mm
08:05 9.8 °C 4.2 °C 1013.4 hPa ENE 8 km/h 16.7 km/h 68 % 0 mm
08:10 9.7 °C 4.3 °C 1013.4 hPa ENE 11.7 km/h 18.5 km/h 69 % 0 mm
08:15 9.8 °C 4.6 °C 1013.4 hPa ENE 8.5 km/h 13 km/h 70 % 0 mm
08:20 10 °C 4.3 °C 1013.8 hPa ENE 10.1 km/h 14.8 km/h 68 % 0 mm
08:21 10 °C 4.2 °C 1013.4 hPa East 9.5 km/h 14.8 km/h 67 % 0 mm
08:26 10.1 °C 4.2 °C 1013.8 hPa ENE 11.1 km/h 13 km/h 67 % 0 mm
08:31 10.3 °C 4.4 °C 1013.8 hPa ENE 10 km/h 13 km/h 67 % 0 mm
08:36 10.4 °C 5 °C 1013.8 hPa ENE 9 km/h 13 km/h 69 % 0 mm
08:41 10.4 °C 4.8 °C 1013.8 hPa ENE 7.4 km/h 14.8 km/h 68 % 0 mm
08:46 10.3 °C 4.3 °C 1013.8 hPa East 5 km/h 8 km/h 66 % 0 mm
08:51 10.4 °C 4.7 °C 1013.4 hPa ENE 8.2 km/h 14.5 km/h 68 % 0 mm
08:56 10.5 °C 5.1 °C 1013.8 hPa ENE 4 km/h 5.6 km/h 69 % 0 mm
09:01 10.8 °C 5.1 °C 1013.8 hPa ENE 4.7 km/h 11.3 km/h 68 % 0 mm
09:06 11 °C 4.9 °C 1013.8 hPa ENE 6.1 km/h 14.8 km/h 66 % 0 mm
09:11 11.2 °C 4.9 °C 1013.8 hPa ENE 10.8 km/h 14.5 km/h 65 % 0 mm
09:16 11.4 °C 4.8 °C 1013.8 hPa East 11.9 km/h 20.4 km/h 64 % 0 mm
09:21 11.5 °C 5.6 °C 1013.8 hPa East 11.6 km/h 16.7 km/h 67 % 0 mm
09:26 11.4 °C 5.5 °C 1013.8 hPa East 10.1 km/h 18.5 km/h 67 % 0 mm
09:31 11.5 °C 5.8 °C 1013.8 hPa ENE 9.7 km/h 13 km/h 68 % 0 mm
09:36 11.3 °C 5.2 °C 1014.1 hPa ENE 10.6 km/h 14.8 km/h 66 % 0 mm
09:41 11.2 °C 5.7 °C 1014.1 hPa ENE 7.4 km/h 11.3 km/h 69 % 0 mm
09:46 11.4 °C 5.9 °C 1014.1 hPa ENE 7.6 km/h 11.1 km/h 69 % 0 mm
09:51 11.9 °C 6.4 °C 1014.1 hPa ENE 9.5 km/h 12.9 km/h 69 % 0 mm
09:56 12.2 °C 5.8 °C 1014.1 hPa NE 6.4 km/h 14.8 km/h 65 % 0 mm
10:01 12.4 °C 6.4 °C 1014.1 hPa ENE 5.6 km/h 8 km/h 67 % 0 mm
10:06 12.6 °C 6.2 °C 1014.1 hPa ENE 6.3 km/h 9.3 km/h 65 % 0 mm
10:11 12.7 °C 6.3 °C 1014.1 hPa NE 8.5 km/h 11.1 km/h 65 % 0 mm
10:16 12.7 °C 6.1 °C 1014.1 hPa ENE 10.3 km/h 16.7 km/h 64 % 0 mm
10:21 12.7 °C 5.8 °C 1014.1 hPa NE 8.9 km/h 13 km/h 63 % 0 mm
10:26 12.7 °C 5.8 °C 1014.1 hPa East 7.7 km/h 16.7 km/h 63 % 0 mm
10:31 12.7 °C 5.6 °C 1014.1 hPa ENE 9.8 km/h 16.7 km/h 62 % 0 mm
10:36 12.6 °C 5.4 °C 1014.1 hPa ENE 10 km/h 14.8 km/h 62 % 0 mm
10:41 12.4 °C 5.6 °C 1014.1 hPa NE 7.4 km/h 16.7 km/h 63 % 0 mm
10:46 12.7 °C 6.1 °C 1014.4 hPa ENE 12.7 km/h 19.3 km/h 64 % 0 mm
10:52 12.7 °C 6.3 °C 1014.1 hPa ENE 9.2 km/h 16.7 km/h 65 % 0 mm
10:57 12.8 °C 5.7 °C 1014.1 hPa NE 10.6 km/h 16.7 km/h 62 % 0 mm
11:02 12.7 °C 6.1 °C 1014.1 hPa NE 10.9 km/h 16.7 km/h 64 % 0 mm
11:07 12.9 °C 6.3 °C 1014.1 hPa ENE 10.9 km/h 18.5 km/h 64 % 0 mm
11:12 12.9 °C 6 °C 1014.1 hPa ENE 10.3 km/h 11.3 km/h 63 % 0 mm
11:17 13.2 °C 6.5 °C 1014.1 hPa ENE 10 km/h 14.8 km/h 64 % 0 mm
11:22 13.3 °C 6.2 °C 1014.1 hPa ENE 7.7 km/h 13 km/h 62 % 0 mm
11:27 13.2 °C 5.6 °C 1014.4 hPa ENE 6.3 km/h 16.7 km/h 60 % 0 mm
11:32 13.3 °C 6.2 °C 1014.1 hPa ENE 8 km/h 14.8 km/h 62 % 0 mm
11:37 13.6 °C 6.4 °C 1014.1 hPa NE 6.3 km/h 14.8 km/h 62 % 0 mm
11:42 13.7 °C 5.8 °C 1014.1 hPa East 7.4 km/h 13 km/h 59 % 0 mm
11:47 13.4 °C 6.3 °C 1014.1 hPa East 4.7 km/h 14.8 km/h 62 % 0 mm
11:52 13.8 °C 6.4 °C 1014.1 hPa NE 6.1 km/h 11.1 km/h 61 % 0 mm
11:57 14.2 °C 5.8 °C 1014.1 hPa ENE 10.8 km/h 16.7 km/h 57 % 0 mm
12:02 14.1 °C 5.2 °C 1014.1 hPa ENE 11.6 km/h 16.7 km/h 55 % 0 mm
12:07 13.8 °C 5.7 °C 1013.8 hPa ENE 4.7 km/h 11.1 km/h 58 % 0 mm
12:12 13.9 °C 6.1 °C 1013.8 hPa ENE 6.8 km/h 12.9 km/h 59 % 0 mm
12:17 14.1 °C 6.9 °C 1013.8 hPa ENE 3.9 km/h 5.6 km/h 62 % 0 mm
12:22 14.3 °C 5.3 °C 1013.8 hPa ENE 11.4 km/h 16.1 km/h 55 % 0 mm
12:27 13.9 °C 5.3 °C 1013.8 hPa ENE 6.9 km/h 13 km/h 56 % 0 mm
12:32 14.1 °C 5.9 °C 1013.8 hPa ENE 6.1 km/h 11.1 km/h 58 % 0 mm
12:37 14.3 °C 5.3 °C 1014.1 hPa ENE 5.3 km/h 13 km/h 55 % 0 mm
12:42 14.3 °C 6.4 °C 1014.1 hPa ENE 3.2 km/h 9.3 km/h 59 % 0 mm
12:47 14.4 °C 5.5 °C 1014.1 hPa ENE 9.5 km/h 14.8 km/h 55 % 0 mm
12:52 14.3 °C 5.9 °C 1014.1 hPa ENE 5.6 km/h 11.1 km/h 57 % 0 mm
12:57 14.4 °C 6.5 °C 1013.8 hPa ENE 4.3 km/h 7.4 km/h 59 % 0 mm
13:02 14.6 °C 6.4 °C 1013.8 hPa ENE 10 km/h 14.8 km/h 58 % 0 mm
13:07 14.6 °C 6.6 °C 1013.8 hPa ENE 8.7 km/h 14.5 km/h 59 % 0 mm
13:12 14.4 °C 6.5 °C 1013.8 hPa ENE 5.5 km/h 16.7 km/h 59 % 0 mm
13:17 14.6 °C 6.7 °C 1013.8 hPa NE 10 km/h 14.8 km/h 59 % 0 mm
13:22 14.7 °C 6.7 °C 1014.1 hPa ENE 9.2 km/h 17.7 km/h 59 % 0 mm
13:27 14.7 °C 6.2 °C 1014.1 hPa ENE 6.8 km/h 11.1 km/h 57 % 0 mm
13:32 14.6 °C 6.4 °C 1013.8 hPa ENE 5 km/h 16.7 km/h 58 % 0 mm
13:37 14.4 °C 6 °C 1013.8 hPa ENE 6.6 km/h 16.7 km/h 57 % 0 mm
13:42 14.2 °C 6.3 °C 1013.8 hPa NE 8.2 km/h 18.5 km/h 59 % 0 mm
13:47 14 °C 6.6 °C 1013.8 hPa NE 11.7 km/h 16.1 km/h 61 % 0 mm
13:52 14.1 °C 6.7 °C 1013.8 hPa ENE 7.9 km/h 14.8 km/h 61 % 0 mm
13:57 14.2 °C 6.6 °C 1014.1 hPa ENE 5.3 km/h 11.1 km/h 60 % 0 mm
14:02 14.6 °C 7.1 °C 1014.1 hPa ENE 5.1 km/h 11.1 km/h 61 % 0 mm
14:05 14.7 °C 7 °C 1013.8 hPa ENE 8.7 km/h 13 km/h 60 % 0 mm
14:10 14.6 °C 6.1 °C 1013.8 hPa ENE 6.6 km/h 16.7 km/h 57 % 0 mm
14:15 14.6 °C 6.4 °C 1013.8 hPa ENE 5.6 km/h 16.7 km/h 58 % 0 mm
14:20 14.4 °C 6.8 °C 1013.8 hPa ENE 3.9 km/h 13 km/h 60 % 0 mm
14:25 14.5 °C 7.1 °C 1013.8 hPa ENE 6 km/h 12.9 km/h 61 % 0 mm
14:30 14.6 °C 7.1 °C 1013.4 hPa NE 5.8 km/h 14.8 km/h 61 % 0 mm
14:35 14.6 °C 7.1 °C 1013.4 hPa ENE 7.7 km/h 13 km/h 61 % 0 mm
14:40 14.6 °C 7.3 °C 1013.4 hPa NE 7.9 km/h 13 km/h 62 % 0 mm
14:45 14.5 °C 6.8 °C 1013.4 hPa ENE 4.7 km/h 9.3 km/h 60 % 0 mm
14:50 14.5 °C 7.3 °C 1013.4 hPa ENE 6.4 km/h 6.4 km/h 62 % 0 mm
14:55 14.6 °C 7.7 °C 1013.4 hPa NE 2.6 km/h 5.6 km/h 63 % 0 mm
15:00 14.6 °C 7.6 °C 1013.4 hPa ENE 2.7 km/h 11.1 km/h 63 % 0 mm
15:05 14.5 °C 6.6 °C 1013.8 hPa ENE 7.1 km/h 13 km/h 59 % 0 mm
15:10 14.4 °C 7.5 °C 1013.4 hPa ENE 3.5 km/h 14.8 km/h 63 % 0 mm
15:15 14.4 °C 7.5 °C 1013.4 hPa ENE 2.6 km/h 11.1 km/h 63 % 0 mm
15:20 14.6 °C 7.7 °C 1013.4 hPa ENE 7.1 km/h 14.8 km/h 63 % 0 mm
15:25 14.8 °C 7.6 °C 1013.4 hPa ENE 5 km/h 11.3 km/h 62 % 0 mm
15:30 14.7 °C 7 °C 1013.4 hPa NE 4.3 km/h 14.8 km/h 60 % 0 mm
15:35 14.5 °C 7.1 °C 1013.1 hPa ENE 8.5 km/h 14.8 km/h 61 % 0 mm
15:40 14.3 °C 7.4 °C 1013.1 hPa ENE 1.3 km/h 3.7 km/h 63 % 0 mm
15:45 14.6 °C 7.7 °C 1013.4 hPa ENE 7.4 km/h 14.5 km/h 63 % 0 mm
15:50 14.2 °C 6.6 °C 1013.1 hPa East 3.9 km/h 13 km/h 60 % 0 mm
15:55 13.9 °C 7 °C 1013.1 hPa ENE 2.1 km/h 5.6 km/h 63 % 0 mm
16:00 13.7 °C 6.8 °C 1013.1 hPa ENE 2.7 km/h 5.6 km/h 63 % 0 mm
16:06 13.6 °C 7.1 °C 1013.1 hPa ENE 1.6 km/h 11.3 km/h 65 % 0 mm
16:11 13.6 °C 7.1 °C 1013.1 hPa ENE 1.6 km/h 4.8 km/h 65 % 0 mm
16:16 13.4 °C 7.2 °C 1013.1 hPa ENE 1.6 km/h 3.2 km/h 66 % 0 mm
16:21 13.4 °C 7.2 °C 1012.8 hPa ENE 1.6 km/h 6.4 km/h 66 % 0 mm
16:26 13.4 °C 6.9 °C 1013.1 hPa ENE 1.6 km/h 6.4 km/h 65 % 0 mm
16:31 13.3 °C 7.1 °C 1013.1 hPa ENE 3.2 km/h 4.8 km/h 66 % 0 mm
16:36 13.3 °C 7.1 °C 1013.1 hPa ENE 1.6 km/h 6.4 km/h 66 % 0 mm
16:41 13.4 °C 7.4 °C 1012.8 hPa ENE 1.6 km/h 3.2 km/h 67 % 0 mm
16:46 13.6 °C 7.6 °C 1012.8 hPa ENE 3.2 km/h 4.8 km/h 67 % 0 mm
16:51 13.5 °C 6.3 °C 1012.8 hPa ENE 1.6 km/h 4.8 km/h 62 % 0 mm
16:56 13.5 °C 6.3 °C 1013.1 hPa ENE 1.6 km/h 8 km/h 62 % 0 mm
17:01 13.5 °C 6.1 °C 1013.1 hPa NE 1.8 km/h 5.6 km/h 61 % 0 mm
17:06 13.6 °C 5.7 °C 1013.1 hPa ENE 2.1 km/h 5.6 km/h 59 % 0 mm
17:11 13.7 °C 5.6 °C 1013.1 hPa ENE 4.2 km/h 5.6 km/h 58 % 0 mm
17:16 13.7 °C 5.6 °C 1013.1 hPa ENE 2.6 km/h 3.7 km/h 58 % 0 mm
17:21 13.6 °C 5.5 °C 1013.4 hPa NE 3.9 km/h 5.6 km/h 58 % 0 mm
17:26 13.6 °C 5.9 °C 1013.1 hPa ENE 0.5 km/h 3.7 km/h 60 % 0 mm
17:31 13.4 °C 5.8 °C 1013.1 hPa Calm   3.7 km/h 60 % 0 mm
17:36 13.4 °C 6.3 °C 1013.1 hPa ENE 0.5 km/h 3.7 km/h 62 % 0 mm
17:41 13.4 °C 6.9 °C 1013.1 hPa ENE 1.3 km/h 5.6 km/h 65 % 0 mm
17:46 13.3 °C 6.7 °C 1013.1 hPa ENE 1.3 km/h 5.6 km/h 64 % 0 mm
17:51 13.2 °C 6.6 °C 1013.1 hPa Calm   1.9 km/h 64 % 0 mm
17:56 13.2 °C 6.9 °C 1013.4 hPa ENE 0.5 km/h 1.9 km/h 66 % 0 mm
18:01 13.2 °C 6.7 °C 1013.4 hPa ENE 1.9 km/h 5.6 km/h 65 % 0 mm
18:06 13.1 °C 6.9 °C 1013.4 hPa ENE 3.1 km/h 5.6 km/h 66 % 0 mm
18:11 13.1 °C 6.8 °C 1013.4 hPa ENE 1.3 km/h 5.6 km/h 66 % 0 mm
18:16 12.9 °C 6.4 °C 1013.4 hPa NE 3.7 km/h 5.6 km/h 65 % 0 mm
18:21 12.8 °C 6.3 °C 1013.8 hPa ENE 3.7 km/h 5.6 km/h 65 % 0 mm
18:26 12.7 °C 6.5 °C 1013.8 hPa ENE 1.3 km/h 5.6 km/h 66 % 0 mm
18:31 12.6 °C 6.4 °C 1013.8 hPa ENE 4.8 km/h 7.4 km/h 66 % 0 mm
18:36 12.5 °C 6.6 °C 1013.8 hPa NE 4.3 km/h 7.4 km/h 67 % 0 mm
18:42 12.4 °C 6.7 °C 1013.8 hPa East 6.3 km/h 8 km/h 68 % 0 mm
18:47 12.2 °C 6.4 °C 1013.8 hPa ENE 8.5 km/h 11.1 km/h 68 % 0 mm
18:52 12.1 °C 6.7 °C 1013.8 hPa ENE 1.1 km/h 7.4 km/h 70 % 0 mm
18:57 12 °C 6.9 °C 1013.8 hPa ENE 4.2 km/h 5.6 km/h 71 % 0 mm
19:02 11.9 °C 6.7 °C 1013.8 hPa NE 2.3 km/h 5.6 km/h 70 % 0 mm
19:07 11.8 °C 6.6 °C 1014.1 hPa ENE 6.8 km/h 11.3 km/h 70 % 0 mm
19:12 11.7 °C 6.2 °C 1014.1 hPa ENE 7.7 km/h 11.1 km/h 69 % 0 mm
19:17 11.7 °C 6.6 °C 1014.1 hPa ENE 6.1 km/h 12.9 km/h 71 % 0 mm
19:22 11.6 °C 6.9 °C 1014.1 hPa ENE 5.5 km/h 9.3 km/h 73 % 0 mm
19:27 11.5 °C 6.6 °C 1014.1 hPa ENE 2.1 km/h 5.6 km/h 72 % 0 mm
19:32 11.4 °C 6.8 °C 1014.1 hPa ENE 0.8 km/h 4.8 km/h 73 % 0 mm
19:37 11.4 °C 6.8 °C 1014.1 hPa ENE 4.5 km/h 9.7 km/h 73 % 0 mm
19:42 11.4 °C 6.9 °C 1014.1 hPa ENE 0.5 km/h 1.9 km/h 74 % 0 mm
19:47 11.3 °C 6.9 °C 1014.4 hPa ENE 3.2 km/h 5.6 km/h 74 % 0 mm
19:52 11.3 °C 6.6 °C 1014.1 hPa ENE 2.1 km/h 5.6 km/h 73 % 0 mm
19:57 11.2 °C 6.6 °C 1014.4 hPa ENE 1.8 km/h 5.6 km/h 73 % 0 mm
20:02 11.2 °C 6.3 °C 1014.4 hPa ENE 1.8 km/h 5.6 km/h 72 % 0 mm
20:07 11.2 °C 6.3 °C 1014.4 hPa ENE 0.5 km/h 3.7 km/h 72 % 0 mm
20:12 11.2 °C 6.5 °C 1014.4 hPa Calm   1.9 km/h 73 % 0 mm
20:17 11.1 °C 6.4 °C 1014.1 hPa ENE 1.4 km/h 3.7 km/h 73 % 0 mm
20:22 11.1 °C 6.7 °C 1014.4 hPa Calm     74 % 0 mm
20:27 11.1 °C 6.6 °C 1014.4 hPa Calm   1.9 km/h 74 % 0 mm
20:32 11.1 °C 6.4 °C 1014.4 hPa Calm     73 % 0 mm
20:38 11 °C 6.3 °C 1014.1 hPa Calm     73 % 0 mm
20:43 11 °C 6.3 °C 1014.4 hPa Calm     73 % 0 mm
20:48 10.9 °C 6.1 °C 1014.4 hPa Calm     72 % 0 mm
20:53 10.9 °C 6.1 °C 1014.4 hPa ENE 0.2 km/h 1.9 km/h 72 % 0 mm
20:58 10.9 °C 6.1 °C 1014.4 hPa Calm     72 % 0 mm
21:03 10.8 °C 6 °C 1014.4 hPa ENE 0.2 km/h 1.9 km/h 72 % 0 mm
21:08 10.8 °C 6 °C 1014.4 hPa Calm     72 % 0 mm
21:13 10.8 °C 5.9 °C 1014.8 hPa Calm     72 % 0 mm
21:18 10.8 °C 5.9 °C 1014.8 hPa Calm     72 % 0 mm
21:23 10.7 °C 5.9 °C 1014.8 hPa Calm     72 % 0 mm
21:28 10.7 °C 5.8 °C 1014.8 hPa Calm     72 % 0 mm
21:33 10.6 °C 5.8 °C 1014.8 hPa Calm     72 % 0 mm
21:38 10.6 °C 5.8 °C 1014.8 hPa Calm     72 % 0 mm
21:43 10.6 °C 5.9 °C 1014.8 hPa Calm     73 % 0 mm
21:48 10.4 °C 5.8 °C 1014.8 hPa Calm     73 % 0 mm
21:53 10.4 °C 5.8 °C 1014.8 hPa Calm     73 % 0 mm
21:58 10.4 °C 5.8 °C 1014.8 hPa Calm     73 % 0 mm
22:03 10.3 °C 5.7 °C 1014.8 hPa Calm     73 % 0 mm
22:08 10.3 °C 5.8 °C 1014.8 hPa Calm     74 % 0 mm
22:13 10.3 °C 5.8 °C 1014.8 hPa Calm     74 % 0 mm
22:18 10.2 °C 5.8 °C 1014.8 hPa Calm     74 % 0 mm
22:23 10.2 °C 5.7 °C 1014.8 hPa Calm     74 % 0 mm
22:29 10.1 °C 5.7 °C 1014.8 hPa Calm     74 % 0 mm
22:34 10.1 °C 5.6 °C 1014.8 hPa Calm     74 % 0 mm
22:39 10.1 °C 5.8 °C 1014.8 hPa Calm     75 % 0 mm
22:44 9.9 °C 5.7 °C 1014.8 hPa Calm     75 % 0 mm
22:49 9.9 °C 5.7 °C 1014.8 hPa Calm     75 % 0 mm
22:54 9.8 °C 5.6 °C 1014.4 hPa Calm     75 % 0 mm
22:59 9.8 °C 5.6 °C 1014.4 hPa Calm     75 % 0 mm
23:04 9.7 °C 5.7 °C 1014.4 hPa Calm     76 % 0 mm
23:09 9.7 °C 5.6 °C 1014.4 hPa Calm     76 % 0 mm
23:14 9.6 °C 5.6 °C 1014.4 hPa Calm     76 % 0 mm
23:19 9.5 °C 5.5 °C 1014.4 hPa Calm     76 % 0 mm
23:24 9.4 °C 5.4 °C 1014.4 hPa Calm     76 % 0 mm
23:29 9.4 °C 5.4 °C 1014.4 hPa Calm     76 % 0 mm
23:34 9.4 °C 5.6 °C 1014.4 hPa Calm     77 % 0 mm
23:39 9.3 °C 5.4 °C 1014.1 hPa Calm     77 % 0 mm
23:44 9.2 °C 5.4 °C 1014.1 hPa Calm     77 % 0 mm
23:49 9.2 °C 5.3 °C 1014.4 hPa Calm     77 % 0 mm
23:54 9.1 °C 5.5 °C 1014.4 hPa Calm     78 % 0 mm
23:59 9.1 °C 5.6 °C 1014.4 hPa Calm     79 % 0 mm
Crab Meadow Weather
Compliments of Weather Underground - 3 mb

Script developed by  Jim McMurry - jmcmurry@mwt.net Adapted for the template by  Wim van der Kuil - Leuven-Template.eu

Pollen: Each year American vegetation spews forth some 1,000,000 tons of pollen into the air we breathe.